Aérodrome :
LOGIN :

S'inscrire | Disclaimer

   EN    FR    IT 

 










Légende :    VFR   VFR Marginal   IFR   IFR Intensif   IFR Très Intensif
Visi : 
Plafond : 
>= 8 km
>= 3000ft
5 à 8 km
1000 à 3000 ft
1500m à 5 km
500 à 1000 ft
800 à 1500m
200 à 500 ft
< 800m
< 200 ft
Symboles :   Orages  Brouillard  Fortes neiges  Fortes précipitations  Vent > 20 kt
SIGMETs :   Divers  Orages  Givrage  Turbulence  Onde Orograph.  Cendres Volcan.







- Altitude de l'aérodrome : 39 ft
- Code IATA : TRS


LIPQ - Friuli Venezia Giulia Apt. Trieste

DERNIER METAR :
  • 240420Z 05002KT CAVOK 15/14 Q1018

METARs EXPIRÉS :
  • 240350Z AUTO 06003KT 9999 NCD 15/14 Q1018
  • 240320Z AUTO 03003KT 9999 NCD 15/14 Q1018
  • 240250Z AUTO 05002KT 9999 NCD 15/14 Q1018
  • 240220Z AUTO 10002KT 9999 NCD 16/14 Q1018
  • 240150Z AUTO VRB01KT 9999 NCD 15/14 Q1017

TAF TAF LIPQ
Valide du 24 à 00h jusqu'au 25 à 00h UTC


232300Z 2400/2424 VRB05KT 9999 FEW030
Pas de NOTAMs connus pour ce terrain.



MET'MAP, la Météo Aéronautique d'un coup d'oeil ! - Copyright ORBIFLY Décembre 2007 - Disclaimer

ORBIFLY MET'MAP TEAM :

Programmation & Développement : Alexandra Zaïnal
Conception & Développement : Baudouin d'Aumeries
Co-Programmation & Développement : Marc-Olivier Méhu
Soutien technique & logistique : Manuel Goepfert

Contact : metmap@orbifly.com




SOURCES & CREDITS :

   NOAA